Terug naar catalogus

NAVSTAR 46

USA 145

ActiefNavigatieHEO
NORAD 25933·PAYLOAD·🇺🇸 United States

Gelanceerd Oct 7, 1999 vanaf Cape Canaveral Space Force Station

Loading…

Volgende Passages (komende 24 uur)

TLE

VersSource: Space-Track

Epoch: Sep 14, 2026, 01:15 UTC

1 25933U 99055A   26257.05254903 -.00000052  00000-0  00000-0 0  9998
2 25933  51.3829 291.5720 0104808 180.1121 187.0098  2.00557825197366

Volg NAVSTAR 46 in realtime met AllMySat

Download on the App Store